Regional Weather Roundup
Issued by NWS

Home | Current Version | Previous Version | Graphics & Text | Print | Product List | Glossary On
Versions: 1 2 3 4 5 6 7 8 9 10 11 12 13 14 15 16 17 18 19 20 21 22 23 24 25 26 27 28 29 30 31 32 33 34 35 36 37 38 39 40 41 42 43 44 45 46 47 48 49 50
000
ASUS45 KABQ 230710
RWRNM
NEW MEXICO REGIONAL WEATHER ROUNDUP
NATIONAL WEATHER SERVICE ALBUQUERQUE NM
1200 AM MST THU NOV 23 2017

NOTE: "FAIR" MEANS FEW OR NO CLOUDS BELOW 12,000 FEET AGL WITH NO
       SIGNIFICANT WEATHER OR OBSTRUCTIONS TO VISION.

      THIS PRODUCT IS RELEASED AS TWO VERSIONS.  ONE VERSION NEAR
      THE TOP OF THE HOUR CONTAINING PRELIMINARY DATA FROM ALBUQUERQUE
      AND OTHER STATIONS.  A FINAL VERSION WITH ADDITIONAL DATA IS
      ISSUED ABOUT 10 MINUTES AFTER THE HOUR.

NMZ501-503-504-510>518-230800-
NORTHWEST PLATEAU/NORTHCENTRAL MOUNTAINS

CITY           SKY/WX    TMP DP  RH WIND       PRES   REMARKS
FARMINGTON     FAIR      38  25  59 E10       30.35F WCI  31
LOS ALAMOS     FAIR      51  24  35 CALM      30.40S
SANTA FE       FAIR      39  27  62 N10       30.35F WCI  32
TAOS           FAIR      34  23  64 E7        30.42F WCI  28
ANGEL FIRE     FAIR      25  23  91 CALM      30.45S

$$
NMZ402-403-502-505>509-230800-
WESTCENTRAL MOUNTAINS/SOUTHWEST MOUNTAINS

CITY           SKY/WX    TMP DP  RH WIND       PRES   REMARKS
GALLUP         FAIR      29  19  66 CALM      30.41S
GRANTS         FAIR      32  24  72 NW9       30.43F WCI  24
SILVER CITY    FAIR      40  20  44 N12       30.33F WCI  33

$$
NMZ407-409-411-412-230800-
SOUTHERN DESERTS

CITY           SKY/WX    TMP DP  RH WIND       PRES   REMARKS
DEMING         FAIR      42  19  39 NW7       30.29F
LAS CRUCES     FAIR      43  22  43 NW9       30.29F
HOLLOMAN AFB   FAIR      40  23  50 E3        30.30F
ALAMOGORDO     FAIR      41  23  48 S6        30.28F
T OR C         FAIR      44  22  41 W7        30.30F

$$
NMZ519>523-230800-
CENTRAL VALLEYS/CENTRAL HIGHLANDS

CITY           SKY/WX    TMP DP  RH WIND       PRES   REMARKS
ALBUQUERQUE    FAIR      45  28  51 E3        30.34S
DOUBLE EAGLE   FAIR      36  24  61 W7        30.35F WCI  31
MORIARTY ARPT  FAIR      31  20  64 CALM      30.37S
CLINES CORNERS FAIR      39  24  55 NW14      30.36F WCI  31
BELEN          FAIR      38  25  60 NW5       30.33F WCI  34
SOCORRO        FAIR      38  21  51 CALM      30.32F

$$
NMZ524>526-539-540-230800-
SOUTHCENTRAL MOUNTAINS

CITY           SKY/WX    TMP DP  RH WIND       PRES   REMARKS
RUIDOSO        FAIR      45  21  39 W8        30.36F

$$
NMZ527>531-230800-
NORTHEAST HIGHLANDS/NORTHEAST PLAINS

CITY           SKY/WX    TMP DP  RH WIND       PRES   REMARKS
LAS VEGAS      FAIR      43  25  49 NW3       30.34S
RATON          FAIR      35  23  61 NE8       30.31F WCI  29
CLAYTON        FAIR      48  26  42 W12       30.23S

$$
NMZ532>537-230800-
EASTCENTRAL PLAINS

CITY           SKY/WX    TMP DP  RH WIND       PRES   REMARKS
SANTA ROSA     FAIR      41  28  59 CALM      30.26F
TUCUMCARI      FAIR      41  28  60 W8        30.21F
CANNON AFB     FAIR      45  28  52 W13       30.24F
CLOVIS AIRPORT FAIR      39  29  67 NW9       30.24F WCI  33

$$
NMZ028-029-538-230800-
SOUTHEAST PLAINS

CITY           SKY/WX    TMP DP  RH WIND       PRES   REMARKS
ROSWELL        FAIR      39  26  59 W3        30.25F
ARTESIA        FAIR      37  25  60 NW6       30.25F WCI  33
CARLSBAD       FAIR      36  29  75 NW7       30.23F WCI  30
HOBBS          FAIR      36  27  69 NW6       30.24F WCI  31


$$



USA.gov is the U.S. government's official web portal to all federal, state and local government web resources and services.